Location: Banksville Park
(38.5557°N, 75.1182°W)
Time: 18:38:55
(UTC+00:00)

SAR-Lupe-1 - Pass Details

Date: 20 January 2021
Orbit: 482 x 484 km, 98.2° (Epoch: 02 March)

Event Time Altitude Azimuth Distance (km) Brightness Sun altitude
Exits shadow 23:25:32 12° 19° (NNE) 1,571 6.3 -14.9°
Maximum altitude 23:28:52 67° 102° (ESE) 527 3.9 -15.5°
Drops below altitude 10° 23:32:24 10° 185° (S) 1,654 7.0 -16.2°
Sets 23:34:28 0° 188° (S) 2,529 8.0 -16.6°
